Location: Byszew
(52.1813°N, 19.2693°E)
Time: 01:04:45
(UTC+00:00)

ATLAS CENTAUR R/B - Pass Details

Date: 03 March 2021
Orbit: 475 x 670 km, 64.7° (Epoch: 30 March)

Event Time Altitude Azimuth Distance (km) Brightness Sun altitude
Rises 20:00:12 0° 262° (W) 2,525 5.3 -32.0°
Reaches altitude 10° 20:02:37 10° 277° (W) 1,655 4.4 -32.3°
Enters shadow 20:03:16 13° 284° (WNW) 1,457 4.1 -32.4°
